Torna al catalogo

COSMOS 1603

AttivoMilitareLEO
NORAD 15333·PAYLOAD·🇷🇺 Russia

Lanciato Sep 28, 1984 da Baikonur Cosmodrome

Loading…

Prossimi Passaggi (prossime 24 ore)

TLE

AggiornatoSource: Space-Track

Epoca: Sep 14, 2026, 07:35 UTC

1 15333U 84106A   26257.31601750 -.00000069  00000-0 -11077-4 0  9996
2 15333  71.0241 221.0767 0017420 108.3421 251.9598 14.14523812165349

Traccia COSMOS 1603 in tempo reale con AllMySat

Download on the App Store